Theta_e
318 319 322 325 326 325 323 323 319 321 321 313 313 315 318 323 325 330 331 332 335 333 332 333 332 333 336 338 338 339 340 341 342 340 340 342 340 339 340 339 340 339 339 341 341 340 339 339 340 339 338 337 337 337 335 334 333 334 334 336 336 336 337 337 338 338 338 338 337 337 336 336 336 336 336 337 338 337 337 336 336 336 337 337 338 339 339 338 338 337 337 339 339 335 333 332 331
318 321 325 325 323 322 321 323 319 316 316 310 313 316 320 327 329 332 333 334 336 332 332 332 332 334 335 335 334 339 342 340 340 341 341 340 338 338 338 338 339 339 339 340 340 339 339 339 339 339 338 338 337 335 334 333 333 332 332 333 333 334 336 337 337 336 337 337 337 336 335 336 335 334 333 335 337 337 336 336 335 335 336 337 338 339 340 339 339 338 339 339 335 333 331 329 328
317 321 323 323 322 321 321 322 316 311 311 309 312 319 323 328 330 333 334 333 334 332 333 333 332 334 335 337 336 340 343 340 339 340 339 337 337 337 337 338 339 339 339 340 340 339 339 338 338 339 339 338 336 334 333 334 334 332 331 332 333 335 336 337 337 336 338 338 338 336 335 335 335 334 332 333 336 336 335 335 335 336 336 338 339 339 340 339 339 339 339 337 335 334 334 332 331
316 319 321 322 321 322 321 320 317 311 309 309 314 324 328 329 331 332 332 331 331 331 334 334 335 334 336 338 336 340 341 339 341 339 339 337 337 338 338 339 339 339 339 340 339 339 338 338 339 338 339 337 336 334 332 333 333 333 332 332 333 334 334 337 337 337 338 337 337 336 336 337 337 336 332 333 336 336 336 336 335 336 337 338 339 339 339 339 339 339 339 338 336 336 335 334 334
317 319 321 322 321 322 322 321 319 313 311 313 317 327 330 330 332 331 331 331 330 331 333 335 336 336 338 339 338 341 339 338 341 339 338 337 337 338 338 339 338 338 339 339 338 338 339 338 338 337 337 337 336 334 333 332 332 334 334 334 334 333 333 335 335 336 337 336 336 337 338 338 337 335 332 333 336 336 336 336 335 336 338 339 339 339 339 339 339 338 338 337 335 334 333 333 333
319 320 321 321 321 321 319 317 315 313 316 321 322 326 330 330 333 331 330 330 330 332 331 333 336 339 341 339 338 339 338 339 340 339 338 337 337 338 338 339 337 338 339 339 338 338 338 337 336 336 336 336 336 334 334 333 334 335 335 335 334 333 333 334 335 336 336 336 337 337 338 337 337 336 333 334 335 336 336 336 336 337 338 339 339 339 339 339 338 338 337 335 333 332 331 331 331
320 320 321 321 320 320 317 313 313 314 320 324 324 329 331 330 331 329 332 330 332 331 330 333 332 340 341 339 338 337 338 338 339 339 337 336 336 338 339 339 338 338 338 338 338 338 336 335 335 335 336 337 337 335 335 335 335 335 335 335 335 335 334 334 335 334 335 335 336 336 336 335 336 335 334 334 334 336 336 336 336 337 337 337 338 338 339 338 338 337 335 332 331 331 330 330 329
320 320 320 320 321 319 316 313 315 317 321 323 326 330 329 329 330 329 331 330 332 331 331 333 332 340 339 339 339 338 337 338 339 337 336 336 336 338 338 337 337 338 337 338 337 337 336 336 335 335 337 337 337 335 336 337 335 335 335 335 335 335 334 334 334 334 334 334 335 335 334 335 335 335 334 334 334 335 335 336 336 336 337 336 336 337 338 338 337 336 334 331 330 329 328 328 328
319 320 319 320 320 318 316 314 316 320 323 326 328 330 329 329 330 330 333 334 336 333 332 331 332 340 340 340 339 337 337 338 337 335 336 336 338 338 337 336 337 338 337 338 337 338 336 337 336 336 337 337 336 334 335 334 333 334 334 334 334 333 333 333 333 333 334 335 335 335 334 334 334 334 333 333 333 332 331 333 334 334 335 335 336 336 337 337 335 334 331 329 329 328 328 327 327
319 319 319 320 318 314 312 314 316 320 324 328 329 329 330 330 330 333 335 337 336 333 333 331 335 339 340 339 338 337 335 336 335 334 336 338 338 338 337 337 338 337 335 337 337 338 337 337 337 336 336 336 335 334 333 331 331 332 332 333 333 334 333 333 333 333 333 335 336 334 333 333 333 333 332 333 333 330 329 330 331 330 332 334 336 336 336 334 333 332 330 329 328 328 328 327 327
318 318 319 317 314 310 310 314 316 323 328 330 331 329 330 328 330 332 333 336 334 331 331 330 335 337 339 339 338 336 333 335 335 334 336 338 338 338 338 338 337 336 335 336 337 337 337 336 337 337 336 335 334 333 331 330 331 331 331 332 333 334 333 332 333 333 333 335 335 334 333 332 333 334 333 333 333 330 329 329 329 329 331 333 335 335 335 333 333 333 330 329 329 328 328 328 328
318 319 319 315 313 313 313 314 316 326 330 330 331 329 329 328 331 333 333 335 334 333 335 333 334 336 339 340 337 334 333 334 335 335 336 337 338 338 337 337 336 336 336 336 337 337 337 336 337 337 335 333 332 332 331 331 331 331 332 332 333 333 332 332 333 333 334 335 335 334 332 332 333 333 332 332 332 330 328 327 328 329 330 332 333 334 334 333 333 333 331 330 329 328 328 327 328
318 318 319 314 315 318 316 316 318 325 328 328 331 329 328 330 332 332 333 336 335 334 336 335 332 335 338 338 336 335 336 335 334 334 336 338 338 337 337 337 335 336 336 336 336 336 336 336 336 336 335 332 330 331 333 333 333 332 332 332 332 332 332 332 332 332 333 335 334 333 333 333 333 333 331 330 330 330 329 328 328 327 329 331 332 333 333 332 332 332 332 330 329 328 327 327 328
319 320 319 316 317 319 316 317 319 324 327 329 330 329 328 331 332 330 330 335 336 335 335 333 330 334 335 337 338 336 338 335 333 334 335 338 338 338 337 337 336 335 335 335 336 336 336 336 336 336 335 333 331 331 333 334 333 333 333 333 333 332 332 332 332 332 333 334 333 332 333 333 334 335 333 331 329 329 330 330 330 328 328 329 330 331 331 331 331 331 331 330 330 329 328 327 327
319 320 320 318 317 318 318 318 319 324 326 330 331 329 330 330 330 330 332 334 336 334 335 335 333 334 335 339 340 337 338 337 334 334 335 338 338 337 337 336 336 335 334 335 335 334 335 336 335 335 335 333 332 332 333 334 334 333 333 333 332 332 333 331 332 332 332 332 330 329 329 330 332 332 329 329 329 326 328 329 329 329 328 328 328 328 329 329 329 329 330 330 330 329 329 328 327
320 320 320 317 315 315 318 320 321 323 326 331 330 328 332 332 330 332 333 332 335 335 336 337 336 336 336 338 339 337 338 338 336 334 334 338 336 335 336 336 335 335 334 335 335 334 335 335 335 335 335 333 333 333 333 334 334 333 333 333 333 333 333 333 332 332 331 330 330 331 330 331 334 331 328 330 330 326 326 327 327 327 327 328 327 327 327 327 327 327 327 328 328 328 329 328 328
319 320 319 316 316 316 319 323 324 324 327 330 329 327 332 334 332 332 331 331 336 335 335 336 336 336 336 337 337 338 338 337 338 336 335 336 335 334 334 334 334 334 334 335 336 335 335 335 336 336 336 334 332 332 332 333 333 333 334 333 333 333 334 334 333 333 332 332 332 334 335 336 336 334 333 334 334 332 328 325 326 326 326 327 327 327 326 326 325 325 325 325 325 326 326 327 327
318 320 319 316 319 319 321 325 325 327 330 330 328 328 330 332 332 330 331 334 336 336 335 335 335 335 335 336 337 337 338 337 337 337 336 335 335 334 333 332 332 334 334 334 335 336 335 335 335 335 336 335 333 333 334 335 335 336 335 335 334 333 335 335 333 334 333 332 332 334 334 335 336 335 335 336 336 336 332 328 327 326 326 326 326 326 326 326 326 325 325 324 324 324 324 324 324
319 321 320 318 322 323 324 327 326 325 329 330 329 329 329 329 330 329 331 333 335 336 336 335 334 335 335 336 336 337 337 337 337 336 336 335 334 333 332 332 332 333 334 333 334 335 335 335 334 334 335 335 334 335 335 335 336 336 334 334 335 335 337 336 334 334 332 331 330 331 332 332 334 333 333 334 335 336 333 331 330 328 328 326 325 325 325 325 325 325 325 325 325 325 325 324 326
319 322 322 322 325 325 325 326 326 326 328 330 330 329 330 329 328 330 331 330 335 335 334 335 336 335 335 335 336 336 336 337 337 336 336 335 334 334 333 333 334 334 334 334 333 334 335 335 334 333 334 334 334 334 334 334 335 334 332 334 335 336 337 335 335 336 334 334 333 332 333 332 332 333 334 335 335 336 336 334 332 331 330 328 326 325 324 325 326 325 324 325 324 325 327 328 330
319 322 324 324 326 326 326 326 326 327 327 328 331 332 332 331 328 330 330 331 337 334 332 335 336 335 334 335 335 336 336 336 336 335 335 335 334 334 334 334 334 334 335 335 335 335 336 334 334 335 333 333 334 334 333 333 333 332 334 335 336 337 336 335 336 337 337 338 337 335 334 332 333 334 335 335 335 336 336 334 334 335 334 333 332 330 329 333 333 329 327 329 328 327 330 332 333
321 322 324 324 327 328 328 328 327 325 327 331 333 332 330 329 329 330 331 336 336 333 332 334 335 334 334 335 336 336 336 336 337 336 335 335 334 334 333 333 334 335 335 335 336 336 336 334 334 335 334 334 334 334 333 334 334 333 333 335 337 337 336 336 336 338 339 339 339 337 335 334 333 334 333 333 334 333 333 333 334 334 335 335 335 334 334 337 337 334 333 335 334 332 333 334 334
324 324 325 325 326 329 328 327 327 327 331 333 331 329 328 329 332 332 333 336 333 332 332 332 334 335 335 335 336 335 336 336 337 337 336 335 334 334 333 333 334 335 334 335 335 335 335 334 333 334 335 335 335 335 334 334 334 333 334 337 338 338 338 338 337 337 339 339 337 336 335 335 332 332 332 332 332 332 332 333 333 333 333 334 334 334 335 336 335 335 335 335 334 334 334 334 334
327 326 325 327 327 328 328 326 329 330 330 330 329 329 328 330 332 333 335 335 331 331 332 332 334 335 335 334 334 334 335 335 335 335 336 335 334 334 334 334 334 334 333 332 333 334 333 333 334 335 335 336 336 335 335 335 335 335 336 336 335 337 338 337 337 336 336 336 334 334 334 333 331 332 332 331 330 331 332 332 332 332 332 333 333 333 334 334 333 334 335 334 333 333 334 333 333
330 328 326 327 328 327 327 328 329 329 328 328 329 329 328 329 332 335 336 335 331 330 331 332 333 333 334 333 333 333 334 334 334 333 334 336 335 334 334 334 333 332 332 331 331 331 330 331 333 335 334 334 333 333 332 331 330 330 329 328 328 334 335 335 336 335 334 334 333 333 334 331 331 332 332 331 330 330 331 331 331 331 332 332 332 332 332 333 333 333 334 334 333 333 334 332 333
327 327 327 328 327 326 326 327 327 328 328 328 330 331 329 328 331 336 337 335 333 330 330 332 332 332 334 333 332 333 332 332 334 333 332 334 335 335 335 334 332 332 332 332 332 331 329 328 329 331 330 328 327 330 329 325 323 322 323 323 325 328 331 334 336 334 333 333 331 332 333 331 331 332 331 331 331 330 329 330 331 330 330 331 331 331 331 332 333 333 333 333 334 334 334 332 332
326 326 327 326 326 326 326 327 326 327 328 329 331 331 330 328 331 336 336 334 334 333 331 331 332 333 333 332 332 332 332 332 333 332 331 333 335 335 335 334 333 332 332 332 332 331 328 326 327 327 326 325 328 330 327 323 323 322 321 321 323 326 329 334 334 332 331 329 329 332 334 331 331 333 332 332 332 330 328 329 330 330 330 331 331 331 331 332 333 333 333 333 335 335 334 333 333
326 326 326 325 325 326 327 326 325 327 328 329 330 331 330 330 331 334 334 332 333 335 334 333 333 333 332 332 332 331 332 331 331 332 332 333 334 334 334 334 334 334 332 332 332 331 327 326 328 327 326 328 328 326 323 322 321 321 321 321 324 328 330 332 332 330 329 328 328 331 333 332 331 333 333 333 332 330 329 328 329 331 330 331 332 331 331 332 332 332 332 333 334 335 334 334 334
325 326 329 328 326 326 326 325 325 326 327 327 329 328 329 332 333 333 332 332 334 336 336 335 333 331 331 331 330 330 331 331 331 331 331 332 333 333 333 334 335 334 333 332 332 330 326 326 328 328 328 328 326 322 321 321 320 321 322 324 325 326 328 329 328 327 328 328 329 330 332 333 332 332 332 332 332 331 331 329 329 330 329 330 331 331 331 332 332 331 332 332 333 333 333 334 333
325 326 328 328 327 327 326 326 326 326 326 327 327 324 326 332 333 331 332 332 335 335 335 336 334 331 330 330 330 330 331 331 332 331 330 331 332 331 331 334 335 333 333 333 332 330 327 326 327 329 330 328 323 320 321 322 322 323 323 323 323 323 326 327 327 329 329 329 330 331 332 332 332 332 332 331 331 330 330 330 330 330 330 330 331 330 331 331 331 331 332 332 332 331 331 331 332
326 325 326 326 322 323 327 327 326 326 326 327 327 322 324 330 332 331 331 331 335 334 334 335 335 333 330 331 332 331 332 332 331 331 331 332 332 331 332 333 334 335 334 332 332 331 328 328 327 328 329 327 322 321 323 323 324 325 325 325 323 324 327 329 329 330 330 329 330 331 331 332 332 331 331 331 330 330 329 329 330 331 331 330 330 330 330 330 330 331 331 331 331 331 330 329 329
328 323 321 322 320 321 327 326 325 327 326 326 326 322 324 329 331 332 330 330 334 334 332 334 334 335 332 331 332 331 333 332 331 332 332 332 332 332 334 334 334 336 335 332 331 331 330 330 329 328 328 326 325 325 325 326 328 329 329 329 327 328 330 330 329 328 328 329 329 330 330 331 331 331 331 330 330 329 329 329 330 330 331 330 330 330 330 330 330 330 330 330 330 330 329 328 327
330 322 318 319 320 320 324 325 325 326 326 326 325 323 325 328 330 330 329 330 333 333 332 334 334 335 334 332 332 332 333 333 332 332 332 331 331 333 335 334 333 334 335 333 331 331 331 331 331 331 330 329 329 330 330 330 331 331 330 330 330 331 331 329 328 327 328 328 329 330 330 330 330 330 330 330 330 329 328 329 330 329 330 330 329 329 329 329 330 330 330 330 330 329 328 327 327
326 323 320 318 320 320 321 324 326 326 325 326 326 326 325 326 328 328 329 331 332 332 332 333 333 334 333 332 333 333 332 332 332 333 333 332 332 333 335 335 334 334 334 334 333 332 332 332 332 331 330 330 331 332 332 331 331 331 331 331 330 329 328 328 328 327 327 328 329 330 330 330 329 329 330 329 329 329 329 329 329 329 329 329 329 329 329 329 330 330 331 331 330 329 328 327 327
321 320 319 317 320 320 319 323 326 328 326 326 326 327 326 326 328 328 328 330 331 331 332 333 333 333 332 332 333 333 332 332 333 335 335 333 332 334 335 335 335 335 335 335 335 334 333 333 333 332 332 332 331 331 331 330 330 331 331 330 330 329 328 328 328 327 328 328 329 330 330 329 329 329 329 329 329 329 329 329 329 329 329 329 329 329 329 329 329 330 330 330 330 329 329 329 329
319 320 318 316 318 318 320 322 324 329 327 325 327 326 325 327 328 327 328 329 330 329 331 333 332 331 332 332 334 334 333 333 334 336 335 333 333 334 335 335 335 335 335 335 335 334 334 333 333 333 333 332 331 331 330 331 331 330 331 331 329 329 328 328 328 327 328 329 330 330 329 329 329 329 329 329 329 329 329 329 329 329 329 328 329 329 329 329 329 329 330 329 329 329 328 329 330
321 321 318 317 318 317 321 324 322 325 325 323 325 326 325 327 328 327 326 326 329 330 330 331 331 331 333 332 333 335 335 334 335 336 335 335 335 335 334 335 335 335 334 335 335 334 334 333 333 333 333 332 332 331 331 331 331 330 331 331 330 329 329 328 327 327 328 329 330 329 329 329 329 328 328 328 329 329 329 328 329 329 329 328 328 329 329 329 329 329 329 329 329 329 328 329 329
322 319 317 317 317 317 319 324 324 323 324 322 322 325 325 326 327 326 326 326 328 330 329 329 329 331 333 333 333 335 335 334 335 335 335 335 336 334 334 335 335 335 335 334 334 333 333 332 332 332 332 332 331 330 329 329 329 329 330 330 330 329 329 328 328 327 328 329 329 329 328 328 328 327 327 327 328 328 328 328 328 328 328 329 328 328 328 329 329 329 329 329 329 329 329 329 329
321 319 317 314 317 323 324 322 325 324 323 321 322 323 324 325 324 325 326 326 327 328 327 328 329 330 332 332 333 336 335 334 334 334 334 334 335 334 334 335 334 334 335 334 333 332 332 331 331 331 331 332 330 328 328 327 327 328 328 327 327 327 328 328 328 328 328 328 329 328 327 326 326 327 326 326 327 328 327 328 328 328 328 328 328 328 328 328 328 328 328 329 329 329 329 328 328
319 318 315 312 318 325 322 321 323 325 323 322 323 323 325 326 325 324 325 325 327 328 327 329 330 330 332 332 332 334 335 334 333 333 335 334 334 335 334 334 333 333 333 334 333 332 331 331 330 331 331 330 328 328 328 327 328 330 329 329 328 328 329 329 330 330 330 328 328 328 327 326 325 326 326 325 326 327 327 327 327 328 327 326 326 327 327 327 327 327 328 328 328 329 330 329 328
317 318 315 313 317 320 320 322 323 323 323 323 324 322 323 325 324 326 327 326 327 329 328 328 329 328 332 332 331 331 332 334 334 332 334 334 333 335 333 333 333 333 332 333 333 332 331 331 330 330 331 330 329 329 330 328 330 331 331 331 331 330 331 331 330 330 329 328 328 328 327 327 326 325 326 325 325 325 326 326 325 325 326 324 325 326 325 324 326 327 327 327 328 329 330 330 329
314 316 316 316 317 318 321 323 321 319 318 319 323 321 322 324 324 326 327 327 327 328 328 327 327 328 329 331 331 331 330 331 334 333 334 335 334 335 335 334 334 333 333 334 332 331 331 331 330 330 330 330 329 329 330 331 332 332 331 332 333 333 333 332 331 331 329 328 329 328 326 327 326 325 325 325 324 324 324 325 324 322 324 323 323 325 324 323 325 326 326 327 327 328 329 330 330
311 314 317 318 319 318 320 321 320 317 316 319 324 324 323 322 322 326 327 327 325 326 328 326 327 327 327 329 330 331 331 330 333 335 334 335 335 335 336 335 334 334 334 334 331 330 330 330 330 330 330 330 329 329 332 333 332 332 333 332 332 332 332 329 329 331 330 329 329 328 327 327 326 325 325 324 324 323 321 324 324 321 322 323 323 324 324 324 324 325 325 325 326 327 328 329 330
311 315 318 318 319 318 319 321 321 318 317 320 324 325 324 321 321 325 325 326 326 325 328 327 326 327 327 329 329 330 332 331 332 334 334 335 335 335 335 334 334 334 334 334 331 330 329 329 329 331 331 331 330 331 333 333 331 331 331 331 329 330 329 327 329 330 331 331 330 329 328 328 326 326 326 324 323 322 320 321 323 322 322 323 323 323 323 324 324 324 325 324 324 325 327 328 328
314 317 318 318 320 319 318 321 319 318 317 318 320 323 325 321 320 325 325 324 325 325 326 326 326 328 328 328 328 330 332 331 331 331 334 336 335 334 332 332 333 334 334 334 333 331 329 329 330 331 331 331 331 331 332 332 332 330 329 329 329 329 329 328 329 330 330 330 330 330 329 328 327 326 326 324 321 322 323 322 323 324 324 323 323 323 323 323 324 324 324 324 324 324 325 326 327
316 317 318 319 320 320 320 319 318 318 317 316 318 320 322 320 319 324 325 324 325 326 326 326 326 327 328 329 329 331 332 330 328 330 333 335 334 334 333 332 333 334 335 334 335 333 330 330 329 330 331 331 332 331 331 332 332 330 330 330 330 328 329 330 329 329 330 330 331 331 330 329 328 326 326 325 322 323 324 323 322 324 324 323 323 322 322 323 323 323 323 323 323 324 324 325 326
317 318 318 319 320 320 321 319 317 317 314 313 316 316 319 320 321 323 325 325 326 326 326 326 327 326 326 330 330 330 330 329 328 330 333 335 335 336 335 334 333 334 335 335 335 335 333 331 330 330 330 331 332 330 329 331 331 330 331 330 330 329 328 330 329 328 329 330 331 331 331 330 328 326 325 326 324 322 323 323 322 323 324 324 323 323 323 322 323 323 322 322 322 323 324 324 325
317 320 318 316 318 317 316 317 317 315 312 311 314 316 319 320 322 325 325 326 325 326 326 325 326 327 326 328 329 328 328 328 329 329 331 335 337 337 337 336 334 335 335 335 335 335 334 333 332 331 330 331 332 330 329 331 330 330 331 330 330 329 329 329 329 328 329 330 330 331 331 329 328 327 325 325 324 322 322 323 322 323 325 324 323 323 324 322 322 322 321 321 322 322 322 323 324
319 319 314 314 315 311 310 315 316 314 312 311 314 317 318 319 322 324 325 325 325 325 326 324 325 327 327 326 326 328 328 327 329 331 331 335 337 337 337 336 336 336 336 335 335 335 334 334 334 333 331 331 332 332 332 332 332 330 330 331 331 331 330 329 329 330 330 330 330 330 330 329 328 327 326 325 324 323 323 322 322 323 323 323 322 323 323 322 321 320 320 320 321 321 320 321 323
318 315 311 313 316 312 312 316 316 315 315 312 314 318 316 316 321 325 325 324 326 326 325 325 326 327 327 326 327 329 330 330 332 333 333 334 336 338 337 336 337 337 336 336 335 336 336 335 335 335 334 333 333 334 333 333 333 331 330 330 330 331 331 330 330 330 330 329 329 329 329 329 328 327 327 325 323 323 323 322 322 322 322 322 321 322 321 321 320 319 319 320 320 320 320 320 321
317 316 315 314 313 312 314 316 313 316 317 313 315 321 316 316 321 324 325 324 325 326 325 325 326 326 327 327 328 331 332 332 332 331 331 331 333 336 338 338 337 337 337 336 335 336 336 335 335 335 335 335 334 334 334 333 332 332 331 330 330 331 331 330 329 329 329 328 328 329 329 328 328 327 327 324 321 322 323 321 321 322 321 320 320 320 319 319 319 319 318 319 319 319 319 319 320
317 320 319 313 313 313 313 314 312 313 316 314 316 321 319 319 324 324 325 326 326 325 325 326 326 326 327 328 329 330 330 330 331 331 330 330 331 333 336 337 337 337 337 336 336 336 336 335 335 335 335 335 335 335 335 334 333 332 332 331 330 330 330 330 329 328 329 328 328 329 329 329 328 327 325 322 320 322 323 321 321 320 320 319 319 318 318 318 318 318 318 319 319 319 319 319 319
318 320 317 315 318 318 313 313 313 313 314 316 319 320 319 320 325 326 325 326 326 325 325 325 326 327 328 329 330 327 328 331 332 334 333 332 332 332 334 334 334 336 337 337 336 336 335 335 335 334 334 334 334 335 335 335 334 334 333 332 331 330 330 330 329 329 329 328 328 329 329 329 328 326 325 322 321 322 322 321 321 320 319 319 318 317 317 318 317 317 318 319 319 319 319 319 319
318 315 316 318 321 321 317 314 314 314 313 317 321 319 318 320 323 326 327 326 326 325 325 326 326 327 327 329 329 328 330 331 331 335 334 332 332 332 332 332 332 333 335 335 335 335 335 335 334 334 334 333 333 333 334 335 335 334 332 331 332 331 330 329 329 329 329 328 328 328 329 329 327 326 325 323 321 323 323 321 321 320 319 318 317 317 318 318 317 317 318 319 319 319 319 319 319
319 316 318 319 319 320 320 314 314 315 313 319 323 321 324 327 325 325 328 327 327 326 325 326 326 326 327 327 328 329 331 332 332 335 334 332 333 333 332 331 331 332 333 333 332 332 333 333 334 333 332 333 333 332 332 333 335 334 332 332 332 332 331 329 328 329 329 329 328 329 329 329 327 325 325 323 322 323 323 321 321 320 319 318 318 318 318 318 318 318 318 319 319 318 318 319 318
323 323 323 322 319 318 317 314 316 317 315 318 322 324 330 333 329 326 327 326 326 326 325 325 326 328 328 329 328 329 331 332 331 331 331 331 331 332 332 331 331 331 331 331 331 331 332 332 333 333 332 332 333 333 331 331 333 334 334 333 332 332 331 330 328 329 329 328 328 329 329 329 327 325 324 324 323 323 323 322 321 320 319 319 318 318 318 318 318 318 318 319 319 318 318 319 319
322 321 321 322 321 320 319 318 318 317 316 314 318 327 331 332 330 327 327 326 325 326 326 326 327 329 330 331 331 331 332 332 331 329 328 329 330 331 331 329 328 329 330 330 331 331 332 333 333 334 333 333 333 333 331 330 331 333 333 333 333 333 332 330 328 328 329 329 328 329 329 329 328 326 325 324 323 323 323 323 322 320 319 319 319 319 318 317 317 318 318 318 317 318 318 318 319
321 320 320 320 320 319 320 321 318 316 316 314 317 326 328 326 326 327 325 326 325 325 327 327 327 329 330 331 331 331 331 330 330 329 328 329 330 328 328 327 327 329 329 329 330 329 330 331 332 332 332 331 332 332 331 330 330 331 331 331 331 332 330 328 328 328 329 329 328 328 329 329 328 326 325 324 323 323 323 323 322 320 319 319 319 319 318 316 316 317 317 316 315 315 316 316 317
Wind_Speed
9 11 12 12 12 12 12 7 6 4 5 7 7 5 1 4 6 11 10 8 6 4 6 12 14 14 12 7 6 10 10 8 5 4 3 5 9 7 4 9 10 9 9 8 7 6 7 8 9 9 10 10 11 11 11 13 14 14 14 14 14 14 15 15 15 15 14 13 13 13 11 9 9 9 9 8 8 7 7 6 6 8 8 6 7 9 9 9 8 8 11 12 13 14 14 13 13
10 14 16 13 12 10 7 5 6 6 5 7 5 2 3 5 10 11 7 6 3 1 8 11 11 15 14 9 4 8 10 9 7 5 6 10 10 7 7 10 9 9 10 9 8 8 8 9 10 10 10 10 11 11 12 12 13 14 14 14 14 15 16 16 15 14 14 14 14 12 9 7 8 8 7 8 8 7 6 6 6 7 6 6 8 9 9 9 10 12 14 14 14 15 14 14 14
11 15 16 13 11 8 6 5 7 7 5 6 3 1 2 6 9 6 1 5 5 2 12 11 8 12 10 8 6 6 9 8 8 7 7 9 7 6 10 11 9 10 11 11 10 9 9 10 10 10 10 11 12 12 12 12 13 13 14 14 15 14 15 15 14 14 14 13 12 10 8 7 7 7 7 8 8 7 6 6 7 8 6 8 9 9 10 11 13 14 15 15 14 15 14 14 14
12 12 14 13 8 7 6 6 6 6 6 5 3 5 5 5 7 5 1 5 4 4 11 9 6 9 10 10 5 6 9 8 10 8 5 7 8 9 12 10 10 11 12 11 10 10 10 10 11 11 11 12 12 12 12 11 12 14 14 14 14 13 13 14 14 14 13 11 11 9 8 7 6 6 7 9 10 9 6 6 8 8 8 9 10 11 12 13 14 14 14 14 14 14 13 13 13
12 13 15 13 6 5 4 5 6 6 6 2 3 5 9 5 4 4 4 6 6 6 7 9 6 9 13 11 4 4 4 3 7 9 6 7 10 10 10 10 11 13 12 11 11 12 11 10 11 11 11 12 12 12 12 12 13 13 13 12 12 11 11 13 13 13 12 11 11 9 8 6 6 6 7 9 11 9 5 5 7 7 9 10 10 11 13 13 14 13 12 12 12 12 12 12 11
13 14 15 13 6 5 5 5 7 6 2 2 3 3 7 6 5 3 4 5 9 10 7 9 8 11 12 9 7 4 2 1 4 8 7 7 9 8 9 12 14 14 12 11 12 12 11 10 11 11 11 12 12 12 12 11 11 12 12 10 10 11 12 12 12 12 11 10 10 9 8 7 6 6 8 9 10 9 5 4 6 7 8 9 10 11 11 12 13 12 12 12 11 11 10 10 9
15 11 10 10 6 5 6 6 8 6 3 3 1 6 3 4 4 2 3 4 8 8 6 8 10 14 8 2 5 4 5 7 4 8 11 8 9 10 9 12 16 16 13 13 12 12 11 11 12 11 12 13 13 13 12 11 10 10 10 9 9 11 12 11 10 10 10 10 9 10 11 10 7 6 8 7 8 7 6 6 6 7 7 7 9 11 11 11 12 11 11 11 11 10 10 9 8
16 9 5 7 6 5 7 6 7 5 2 2 2 7 1 4 5 4 6 6 5 5 7 11 11 14 6 2 4 5 9 11 9 12 14 10 9 10 9 12 16 16 13 13 12 12 11 10 11 11 12 13 12 13 12 11 10 10 9 8 9 10 11 10 10 9 9 9 9 11 14 13 9 7 7 7 7 7 6 6 6 7 7 7 9 10 11 11 11 10 11 11 10 10 9 8 8
14 9 5 6 6 6 6 7 7 4 1 2 8 8 5 5 6 7 12 15 12 8 11 13 13 12 6 7 8 3 8 12 13 14 14 11 9 10 11 13 15 14 13 12 11 11 10 10 11 11 12 12 13 13 11 11 10 10 9 8 9 9 9 10 11 10 9 10 11 12 15 14 10 8 7 6 6 6 6 5 6 7 8 8 9 10 10 10 11 11 11 10 10 9 8 8 8
9 7 6 6 6 6 5 7 5 1 3 7 11 4 5 5 5 12 14 10 10 8 11 13 15 13 7 6 6 5 5 8 12 14 12 10 9 10 14 15 14 14 13 12 12 11 10 9 11 11 11 12 12 12 11 11 10 10 10 9 8 9 10 10 11 10 9 10 12 14 15 14 11 8 6 6 5 4 5 5 5 6 7 8 9 10 10 10 12 11 10 9 9 8 7 8 8
6 5 5 5 6 6 4 6 5 2 6 10 8 2 4 6 6 14 12 8 7 7 12 12 12 12 8 5 3 9 7 4 10 13 10 9 9 11 15 16 16 16 15 13 12 11 10 9 10 11 11 12 13 13 12 11 11 11 11 10 10 10 10 10 10 10 10 11 12 13 14 13 11 8 6 5 4 3 4 4 5 6 7 8 8 9 10 11 11 10 9 8 8 7 6 6 7
6 5 6 4 5 6 3 6 5 5 11 10 6 6 7 9 11 13 10 10 12 12 13 14 9 10 7 3 3 9 8 5 8 12 10 10 11 12 14 14 15 16 14 13 12 11 11 10 10 11 12 14 13 13 12 12 13 12 11 11 11 11 10 9 9 10 10 10 12 11 12 12 10 7 5 4 3 3 3 3 5 5 6 7 8 9 9 10 10 9 7 7 6 5 5 4 5
6 6 5 5 5 6 6 5 3 5 8 7 5 7 9 10 13 9 7 11 14 12 11 13 11 11 3 0 2 4 7 6 6 9 9 10 11 12 14 14 15 15 12 13 12 12 13 12 12 11 12 13 13 12 12 12 12 12 12 12 12 11 10 8 8 9 9 10 11 10 11 10 9 7 4 3 2 2 2 3 4 4 5 6 7 8 9 9 8 7 6 6 5 4 3 3 3
6 6 5 6 5 7 8 4 6 5 6 6 7 8 9 9 7 6 7 11 12 10 9 11 9 12 3 2 2 2 6 7 7 10 11 13 14 14 15 14 13 13 13 13 12 12 13 13 13 13 11 12 13 11 11 11 11 12 12 12 12 10 10 9 8 9 9 9 10 9 9 8 7 6 3 2 2 1 1 2 2 3 4 5 5 6 7 7 7 6 6 5 4 3 2 1 1
6 5 6 5 4 7 6 2 3 5 5 6 10 7 7 10 6 8 10 9 9 9 11 11 7 6 3 3 3 3 6 7 7 10 11 14 16 16 16 15 14 15 14 12 11 12 14 14 14 13 11 11 12 11 9 8 9 11 11 12 11 9 9 9 9 8 9 10 10 8 8 8 5 3 2 1 0 1 1 1 1 1 2 3 4 5 5 6 6 6 6 5 5 4 3 3 2
4 6 5 4 5 5 3 3 4 6 5 7 12 5 6 10 9 10 9 7 9 12 13 10 8 5 3 3 6 7 7 6 6 9 10 10 13 16 16 15 15 15 13 10 11 12 11 12 13 12 9 9 11 10 8 7 7 8 9 10 9 8 7 8 9 8 8 9 9 8 7 7 4 2 3 2 1 1 1 1 1 0 1 1 2 2 3 4 5 5 5 6 5 5 5 5 4
4 5 4 2 5 4 4 6 5 6 7 9 9 4 5 6 6 7 6 10 13 12 12 9 9 8 6 6 7 8 7 6 6 8 9 8 10 14 15 13 12 13 12 9 10 10 9 11 11 10 10 9 10 9 8 6 6 7 7 8 8 8 7 7 8 8 8 8 7 7 5 5 4 3 2 2 0 1 2 1 2 2 1 2 2 2 2 2 3 4 5 5 6 6 6 6 6
4 5 2 3 3 3 7 8 7 7 8 9 6 6 4 3 6 4 2 10 15 14 13 11 10 9 6 6 6 7 7 6 6 8 9 9 9 11 12 11 9 10 12 10 9 9 8 10 10 10 11 9 9 8 6 6 5 6 6 6 7 7 7 7 8 9 8 7 6 6 6 4 3 3 2 1 0 1 2 2 2 3 3 3 3 3 3 3 4 4 5 5 5 5 6 7 7
5 4 2 4 4 6 10 11 9 9 8 10 7 5 3 3 5 1 1 5 12 15 10 7 8 7 4 5 6 7 6 5 5 7 9 11 10 12 14 11 8 8 11 12 11 11 9 10 11 10 10 9 9 7 5 5 4 4 5 6 6 5 5 7 9 9 8 7 6 7 6 3 3 4 3 0 1 1 1 3 2 2 3 3 4 4 5 5 5 6 6 6 6 6 6 5 6
3 1 4 4 8 9 11 11 8 9 7 9 6 4 6 8 5 3 5 3 10 15 5 0 4 5 2 3 5 5 6 7 6 7 9 11 11 12 16 13 7 6 10 12 12 12 10 11 11 10 9 9 9 8 6 5 4 4 5 7 6 4 5 8 9 8 8 7 7 8 6 3 3 5 3 0 2 2 1 2 2 2 2 2 3 4 5 5 6 7 7 7 7 7 6 4 7
1 4 2 4 10 8 6 8 9 9 7 4 7 10 10 8 7 9 9 5 9 12 0 3 4 5 3 3 4 4 6 7 6 7 8 10 12 12 15 14 10 8 9 10 10 11 11 9 8 9 10 9 9 9 7 6 6 4 4 6 6 5 5 7 9 8 8 6 7 10 8 6 4 3 3 2 2 3 3 2 3 4 4 4 4 4 4 5 7 9 8 9 9 8 7 9 12
5 3 3 4 8 5 4 6 9 9 9 11 14 13 6 4 8 11 11 7 8 8 3 4 5 6 5 4 5 5 6 6 5 6 8 9 11 12 15 15 12 10 10 10 10 10 10 8 6 7 9 10 9 10 9 8 7 6 6 7 7 6 6 7 8 7 7 6 6 9 11 9 3 1 2 2 3 3 2 2 3 4 4 4 6 7 6 7 9 9 9 10 11 10 11 14 14
2 2 5 7 7 6 6 8 10 12 15 17 13 8 5 5 9 9 9 9 9 7 5 5 5 5 4 4 5 6 5 6 5 6 8 9 10 12 13 14 11 10 10 10 10 10 9 8 7 9 10 10 9 9 10 9 8 7 7 7 7 7 7 8 8 8 8 7 7 6 8 8 4 3 0 2 3 1 1 1 2 3 3 4 6 7 7 8 10 11 11 11 12 13 13 13 11
2 2 7 8 7 7 7 9 10 15 17 13 6 4 8 8 8 6 5 10 11 10 6 6 6 5 4 4 4 6 5 6 5 5 6 7 8 11 12 14 13 11 11 11 11 10 9 8 8 9 10 10 9 9 10 10 10 9 8 8 10 9 7 7 8 8 9 7 7 7 7 7 4 2 2 1 2 2 1 3 3 3 4 4 4 6 7 8 11 13 11 10 12 13 12 11 10
5 4 7 6 6 7 7 9 13 16 9 6 9 8 9 9 7 6 5 8 12 10 7 7 8 7 4 4 5 6 5 6 5 5 5 4 5 10 12 13 15 14 11 10 11 10 9 8 9 8 9 10 10 12 13 14 13 12 11 10 11 9 8 8 8 8 8 7 7 7 8 8 7 5 2 3 5 3 3 4 4 4 3 4 4 6 8 7 9 12 11 9 9 9 10 10 11
4 6 9 6 7 8 7 10 12 13 6 6 11 6 7 7 4 6 5 7 13 14 10 7 7 8 5 4 5 6 5 5 4 3 3 3 4 8 11 11 16 15 10 9 11 11 10 9 10 9 9 11 13 14 15 16 15 13 12 11 10 9 8 8 8 7 7 7 8 8 9 9 8 8 6 6 6 4 6 4 3 5 3 4 3 5 7 6 7 9 9 8 7 8 9 7 7
8 12 13 10 9 7 6 10 10 8 7 8 9 5 6 5 2 4 4 4 9 14 13 9 6 7 6 5 5 5 4 3 3 1 1 2 2 5 8 11 16 16 10 10 11 11 10 10 11 11 12 14 14 14 14 15 14 12 11 10 9 8 8 9 8 7 8 8 8 8 9 9 8 8 8 8 8 6 8 7 5 5 3 4 3 5 5 6 7 7 5 5 6 8 9 7 6
12 10 10 8 7 5 5 10 8 5 6 7 9 7 6 4 3 5 5 3 4 8 11 12 9 6 6 6 4 4 2 2 2 3 4 2 3 4 7 11 16 15 11 10 12 13 12 12 12 12 14 15 15 14 12 12 10 10 9 9 8 7 8 9 8 7 8 10 10 9 9 9 9 9 9 8 8 7 8 7 7 6 5 4 1 5 7 9 11 9 6 6 7 7 7 7 7
8 8 5 3 5 3 6 10 7 4 4 5 6 6 6 6 4 4 5 2 2 2 4 10 13 10 7 5 4 3 3 5 4 1 7 9 6 7 8 10 13 15 13 10 13 16 15 13 13 12 14 16 15 14 12 11 8 7 7 6 5 6 8 8 8 8 8 10 11 11 10 10 9 9 9 8 9 9 8 8 8 8 7 6 5 4 2 4 7 5 6 6 6 7 7 7 6
6 6 3 2 4 1 7 7 5 4 3 3 4 1 5 7 4 4 4 3 3 2 1 4 11 14 9 6 5 5 5 6 5 9 12 10 5 11 9 8 11 15 15 12 12 16 17 14 12 12 14 15 14 13 11 9 7 5 4 4 4 5 7 7 7 7 7 9 9 10 10 9 9 9 9 9 8 9 8 8 9 9 9 7 6 5 4 6 7 6 7 8 8 8 8 7 5
5 3 3 1 2 3 8 5 4 4 2 5 5 1 4 6 5 4 4 6 5 2 3 3 7 13 10 7 7 6 7 7 7 11 12 4 7 12 9 8 12 15 17 15 11 12 15 14 12 12 13 14 12 11 9 7 7 6 4 4 4 4 5 6 6 5 5 7 7 8 9 9 9 9 9 9 9 9 8 9 9 9 10 10 8 7 7 7 6 7 8 9 10 11 12 9 3
2 3 2 2 2 2 7 8 6 6 5 5 4 1 5 6 6 6 5 8 7 4 2 2 4 10 11 8 6 4 5 8 9 11 10 6 7 8 8 10 12 12 14 16 12 10 12 12 11 12 12 12 11 9 8 7 6 5 3 1 1 2 2 2 4 4 5 7 7 8 8 9 9 9 10 10 11 11 9 10 11 10 11 11 9 9 10 10 9 8 8 8 8 9 12 13 9
3 3 1 2 1 2 5 7 10 9 4 3 3 1 5 6 7 6 3 7 8 5 2 2 2 7 10 9 6 3 3 7 9 9 10 10 7 7 8 11 12 11 12 14 13 12 12 12 11 10 10 11 10 8 7 6 4 2 2 2 1 2 1 2 4 5 6 7 7 8 8 9 9 10 10 10 10 11 9 10 11 10 11 10 10 11 10 10 11 10 10 9 8 8 10 12 11
4 4 1 2 2 0 4 5 12 12 2 3 2 1 7 7 7 7 5 6 7 5 2 1 2 4 7 9 9 6 4 5 6 7 11 13 9 7 9 12 13 13 13 13 14 14 13 13 12 10 10 10 9 8 6 5 4 3 2 1 1 2 3 5 5 6 6 7 7 8 8 8 9 10 10 10 10 10 10 10 10 11 11 11 11 12 10 10 11 10 12 12 9 9 10 10 11
5 6 2 0 2 1 6 5 11 15 6 3 0 2 7 9 8 8 7 8 7 5 5 3 2 4 5 8 10 9 7 5 6 7 12 14 9 8 9 12 14 13 14 13 12 13 12 12 13 12 12 10 9 8 7 5 4 3 2 1 1 2 4 4 4 5 5 6 6 7 7 8 8 9 9 10 10 10 10 10 11 11 11 11 11 12 11 12 12 11 12 12 10 9 8 9 11
7 9 3 3 1 3 8 8 11 11 7 6 4 3 5 7 8 8 8 8 6 5 5 3 3 4 3 6 10 10 8 6 6 8 13 14 10 10 10 11 12 11 13 12 10 10 10 10 11 11 11 10 10 9 7 7 5 5 5 3 2 3 3 3 4 4 4 5 6 6 6 7 7 8 8 9 9 9 10 10 10 11 11 11 11 11 11 12 12 12 12 11 11 9 7 8 10
11 10 4 3 3 6 8 10 10 9 6 2 2 7 9 9 8 9 9 7 6 7 6 4 4 4 3 6 10 10 7 7 8 9 12 14 11 10 12 11 11 11 10 10 10 10 9 9 9 9 9 9 9 9 8 8 7 6 5 4 4 3 2 2 3 4 4 5 5 6 6 7 6 7 7 8 9 9 9 9 10 11 11 11 11 11 11 11 12 12 12 13 13 12 9 7 8
10 7 3 1 2 4 6 11 12 9 6 2 6 8 5 6 7 10 10 6 6 8 6 6 5 6 5 5 10 10 6 7 9 10 11 13 10 9 10 12 12 11 10 9 9 9 8 9 9 8 9 8 8 8 8 7 5 5 5 5 5 4 3 4 5 4 4 4 5 5 6 7 7 7 7 7 8 9 9 8 8 9 10 10 10 10 11 12 13 13 14 14 14 15 11 6 8
5 6 3 1 4 4 5 13 12 6 4 5 9 8 7 9 9 8 8 7 9 8 6 9 8 6 6 5 8 10 8 7 7 9 11 11 11 10 7 9 11 11 10 9 9 9 8 9 9 8 9 7 6 6 6 4 2 2 4 5 4 4 5 5 5 4 3 4 4 5 6 6 7 7 7 6 6 7 7 8 7 7 8 9 10 10 11 11 13 14 15 15 15 16 13 9 11
3 4 2 3 7 5 3 8 8 5 4 6 9 7 8 11 10 8 9 8 11 9 6 12 9 6 7 6 6 8 10 10 7 7 10 9 8 9 8 7 9 10 11 10 9 9 9 9 9 8 8 7 6 6 5 4 3 4 5 5 4 4 5 4 4 4 3 3 4 4 5 6 6 6 6 6 6 6 6 6 6 5 6 8 10 11 10 10 12 13 14 15 14 15 15 14 12
3 3 2 4 5 5 5 9 7 2 2 6 8 6 6 4 4 8 10 10 9 10 7 9 9 6 6 7 6 5 8 10 9 6 7 9 7 7 9 10 10 11 12 11 10 10 9 9 9 8 8 7 8 7 5 6 6 5 6 5 4 4 4 4 4 2 2 1 2 2 3 4 4 5 5 5 5 5 6 5 6 6 6 7 8 9 9 10 12 13 14 15 14 15 15 15 12
3 3 4 5 4 5 9 11 6 1 2 6 5 4 3 0 4 8 3 5 8 8 5 5 7 7 6 6 5 5 6 8 10 9 7 10 12 10 9 10 11 11 11 12 11 10 9 9 10 9 8 8 8 8 7 8 8 7 8 6 5 6 6 5 5 4 4 3 2 1 0 2 3 3 4 5 4 4 5 5 5 6 6 6 6 7 8 11 13 13 13 14 14 14 14 14 14
4 4 4 4 4 3 9 12 4 2 4 5 5 5 1 1 5 6 3 4 7 6 8 7 5 6 5 5 5 5 6 6 9 11 9 10 12 11 8 8 9 9 10 11 11 10 10 10 10 9 9 8 8 9 8 8 8 8 9 8 7 8 8 7 5 5 5 4 3 2 2 1 1 2 3 4 4 4 3 4 5 4 6 7 6 5 7 9 11 11 12 13 14 13 13 14 15
4 5 5 5 6 5 4 9 5 4 6 5 8 10 2 1 4 5 5 8 8 8 9 8 6 7 6 5 6 7 7 6 5 8 9 9 10 10 7 7 8 8 10 10 10 11 10 10 11 9 9 8 8 9 9 8 9 8 7 7 8 8 8 7 7 6 5 5 4 3 3 1 1 1 3 3 3 4 3 3 4 3 5 7 6 4 5 7 8 9 10 11 13 13 14 14 14
6 5 4 5 4 3 2 2 4 5 6 4 6 8 3 1 3 4 5 8 9 9 10 10 10 9 7 5 6 8 9 5 3 5 9 10 10 10 10 10 9 9 10 11 10 10 10 11 11 9 8 8 8 8 9 8 8 8 8 8 8 7 7 8 9 8 7 6 5 4 2 1 0 0 1 1 3 4 3 3 4 3 3 5 5 6 5 5 6 8 9 10 11 13 13 13 13
5 2 4 4 3 1 3 4 4 3 4 5 8 6 3 2 2 2 4 6 7 7 7 10 11 10 10 10 7 7 9 5 1 2 7 10 11 12 13 13 11 10 10 9 8 8 9 10 10 9 8 7 7 8 8 8 8 9 9 9 9 8 8 9 10 9 8 7 7 5 4 3 2 1 1 1 2 3 3 3 3 3 3 1 3 6 6 6 7 7 9 10 10 11 12 12 11
3 7 7 6 4 1 3 3 4 1 3 6 9 8 6 4 2 1 3 7 7 6 6 9 11 12 12 11 10 8 8 7 3 2 5 9 10 10 11 12 12 12 10 9 9 8 8 9 9 10 9 8 9 9 9 9 9 10 10 10 10 9 10 10 10 10 9 9 8 7 5 4 4 3 2 2 1 2 2 2 2 3 3 2 3 6 5 6 7 7 7 8 9 10 11 11 10
5 6 3 2 2 1 2 0 2 1 3 5 6 11 10 4 2 2 6 10 9 8 8 9 12 12 12 11 10 8 8 7 6 4 3 7 9 8 8 9 10 11 11 11 10 9 8 9 9 10 11 10 10 10 10 10 10 10 10 10 11 11 11 11 11 11 11 10 9 8 7 6 6 5 3 3 1 1 1 0 1 2 3 1 2 5 5 4 6 8 8 8 8 8 9 10 9
5 3 2 2 2 1 2 2 2 2 3 4 7 11 8 4 5 7 9 10 10 10 10 10 11 11 10 11 11 9 7 7 7 5 3 4 7 8 8 8 9 9 10 11 10 10 10 10 10 10 11 11 11 11 11 10 10 10 10 11 12 12 12 12 12 11 11 10 9 9 9 7 7 6 5 4 3 2 2 1 1 1 2 2 1 3 4 4 5 6 7 7 7 7 7 8 8
3 2 1 2 2 2 4 3 2 3 2 4 9 9 4 4 7 9 10 9 10 11 11 9 8 9 10 10 12 11 9 7 6 5 3 2 4 7 9 9 8 8 9 10 9 9 9 9 10 10 11 11 11 11 11 11 10 10 11 12 13 14 14 13 12 12 12 11 10 10 10 9 8 7 6 6 5 3 3 2 1 1 1 2 1 2 3 4 4 3 6 7 6 7 8 7 7
3 4 2 2 3 3 3 2 3 4 2 5 8 5 2 4 6 7 8 8 10 11 10 9 8 9 10 10 11 10 7 5 3 4 4 1 1 5 7 7 8 7 8 9 9 9 9 9 9 10 11 11 11 12 12 12 12 12 13 13 14 15 15 14 13 13 12 12 12 11 11 10 9 8 8 7 6 5 4 3 2 1 1 1 1 1 2 4 4 3 6 7 5 6 7 7 8
4 4 3 3 4 4 2 3 5 5 2 3 6 3 3 5 6 7 8 10 12 10 9 9 9 10 9 8 9 8 7 6 4 5 6 5 5 4 3 4 7 8 8 8 9 9 9 10 10 11 12 12 13 14 13 13 14 14 14 15 16 16 15 15 15 14 14 14 13 12 12 12 10 10 9 7 6 6 5 4 3 2 2 1 1 1 2 3 2 2 4 5 5 5 6 7 7
4 3 2 4 4 5 3 3 2 2 1 3 4 2 2 4 6 10 12 11 11 10 9 10 9 11 10 7 7 8 9 10 8 7 6 6 6 5 3 2 2 5 7 8 9 9 10 11 11 11 12 14 15 15 15 16 16 17 18 17 17 17 17 16 16 16 15 15 14 14 13 13 12 11 10 8 8 7 6 5 4 3 3 3 2 2 2 1 1 3 3 4 4 4 5 5 4
6 4 4 3 2 5 4 1 1 1 2 5 5 4 4 3 3 7 9 9 6 7 9 10 10 12 11 8 8 9 11 12 10 5 5 6 5 3 4 3 3 5 6 6 7 9 11 12 12 13 15 16 17 17 17 18 18 20 21 20 19 18 18 18 17 16 16 16 15 14 14 14 13 12 10 9 9 8 8 6 6 5 4 4 3 3 2 2 2 4 3 3 2 3 5 4 2
5 4 3 3 2 2 3 2 2 3 2 4 6 6 6 4 2 3 5 6 8 9 10 10 11 11 10 9 9 11 11 10 8 4 1 3 3 2 3 3 3 6 7 6 6 8 12 13 13 15 17 18 18 18 17 18 20 21 23 22 20 20 19 19 18 18 17 17 17 16 15 14 13 12 11 10 10 10 9 7 6 6 5 5 4 3 3 1 2 3 2 3 2 1 5 4 2
3 2 2 4 3 2 3 2 2 2 2 1 5 5 3 2 1 4 5 7 9 9 9 9 10 11 10 9 9 10 10 8 6 5 3 2 1 1 2 6 5 1 4 7 10 11 14 15 14 17 18 17 17 16 15 18 20 21 23 23 21 21 21 20 20 19 19 19 17 16 16 14 13 13 12 11 10 10 10 8 7 7 6 5 5 3 2 1 2 2 3 4 2 0 4 3 1
4 4 4 4 3 4 4 2 1 1 2 2 2 3 1 2 1 5 8 8 8 9 9 9 10 11 11 10 10 9 8 7 6 5 5 5 2 1 3 8 6 2 3 2 6 7 10 12 12 15 16 15 16 18 17 20 22 22 24 22 21 22 21 20 21 21 19 19 18 17 16 15 14 13 12 12 10 10 10 9 8 7 7 6 5 4 3 2 3 2 3 3 1 1 3 3 1
5 4 4 4 4 4 3 2 3 3 2 2 2 4 2 3 5 7 8 8 9 11 10 8 10 11 10 10 10 9 7 6 6 6 7 7 5 5 7 8 7 4 3 4 3 2 5 8 11 12 13 14 17 18 18 20 24 25 23 20 19 21 20 21 24 22 20 18 17 17 16 15 15 14 13 11 10 10 9 9 8 7 7 6 4 5 4 2 2 2 3 3 2 2 3 2 1
Wind_Direction
276 291 298 295 286 280 276 266 269 247 243 258 256 263 352 344 31 60 45 41 58 29 40 70 59 60 75 74 84 82 59 38 27 359 46 93 114 118 107 89 88 106 109 100 91 89 92 90 88 83 84 80 78 76 77 79 78 76 77 80 82 82 79 79 79 81 87 89 90 88 87 90 93 93 99 101 96 93 91 96 90 89 96 96 95 103 111 118 120 122 117 108 103 101 98 97 97
277 291 286 269 265 267 271 253 265 261 242 260 262 302 31 36 40 51 49 71 112 208 67 66 66 78 89 90 81 89 68 41 51 58 82 95 96 82 75 87 99 119 118 107 95 92 87 85 86 81 80 80 82 80 77 75 76 78 80 84 83 83 80 77 77 77 84 88 87 85 89 97 102 103 111 109 96 94 95 96 92 95 103 97 96 104 112 114 114 116 113 107 103 99 95 93 92
283 293 286 263 247 242 263 257 258 272 260 265 282 6 61 70 62 53 34 115 151 145 77 65 53 73 90 85 40 57 71 45 50 65 88 85 74 74 88 99 109 107 107 104 94 96 97 94 90 84 81 80 84 83 80 73 73 79 81 85 86 90 88 84 82 81 84 88 90 93 98 103 105 107 111 106 98 97 98 97 99 99 93 92 96 102 111 113 112 113 111 107 103 99 96 93 90
285 288 282 271 253 232 251 255 253 271 273 284 352 345 1 79 114 132 103 71 76 61 82 91 54 48 66 75 60 61 59 32 32 46 91 74 60 83 96 108 109 97 96 99 100 103 100 101 99 92 88 83 84 83 82 77 77 82 83 87 92 96 95 97 97 93 93 94 96 98 96 94 97 107 109 106 104 102 106 111 112 110 97 93 96 100 110 112 111 112 110 106 104 100 96 94 92
281 278 266 265 272 261 267 271 262 252 266 309 89 353 345 8 65 87 74 59 56 36 60 97 92 62 61 53 40 60 36 2 37 48 81 80 75 90 100 110 107 99 98 100 101 98 94 100 101 95 95 93 89 84 81 79 79 82 83 89 96 98 95 99 103 101 101 99 97 94 89 84 89 112 113 109 110 105 112 120 112 109 98 96 100 104 110 114 113 112 110 109 106 99 94 93 93
265 263 252 249 266 287 286 265 265 258 270 19 115 68 335 341 21 31 95 75 54 31 38 87 101 91 73 46 42 50 350 350 41 46 64 76 83 95 103 106 102 100 99 95 92 92 95 96 98 96 100 102 97 93 88 85 83 83 86 90 93 93 88 92 102 107 107 105 101 98 96 90 91 120 124 116 117 110 106 111 107 104 98 100 106 110 114 117 115 113 113 114 109 100 97 95 93
257 261 249 240 240 251 263 258 271 289 49 11 82 100 307 345 11 314 91 84 64 30 27 69 84 92 79 41 53 3 7 37 47 59 64 73 86 90 93 96 93 90 84 81 83 84 91 95 101 105 108 107 102 100 96 93 90 88 90 91 90 88 89 95 108 115 114 109 107 109 107 101 101 125 131 125 120 107 97 104 110 105 101 105 112 117 119 117 115 117 120 119 114 106 103 101 102
254 264 272 262 256 235 249 260 266 280 72 277 82 101 282 18 344 321 36 9 51 50 40 53 63 86 77 79 94 345 10 44 67 68 67 74 84 85 77 80 83 83 79 75 76 80 88 97 106 114 113 108 106 105 101 98 97 94 93 92 92 93 99 104 107 112 113 110 110 113 109 104 106 119 128 128 116 99 93 103 113 110 105 108 118 122 120 118 119 124 127 124 119 111 107 105 109
247 245 250 263 267 258 253 268 266 279 16 86 60 44 348 20 336 4 37 4 6 29 43 53 63 91 107 87 99 55 15 35 55 55 58 69 77 86 80 77 80 82 83 78 79 84 90 98 108 118 113 107 108 106 102 102 102 103 101 97 95 98 105 105 106 111 112 111 115 114 108 107 111 116 121 117 104 97 99 106 115 119 115 114 123 126 123 126 130 135 135 128 119 110 104 101 101
235 232 247 260 263 271 259 273 273 300 2 75 74 32 347 360 4 37 56 34 10 21 28 38 68 95 116 88 93 85 36 29 56 58 63 74 73 81 88 89 92 93 95 91 90 88 90 99 107 112 110 108 106 102 100 100 101 105 108 108 105 106 109 108 109 111 110 111 112 111 111 113 113 110 109 101 94 95 103 112 121 126 122 120 126 132 132 136 140 141 137 125 115 108 102 97 94
230 216 240 270 273 273 258 279 282 62 38 64 71 28 6 353 29 39 47 59 29 36 23 17 68 89 86 77 79 79 74 48 72 86 92 101 90 81 88 96 103 105 106 102 95 89 90 99 105 108 110 111 108 104 102 99 101 104 110 114 114 115 114 109 107 110 113 114 111 109 111 112 107 99 91 88 92 98 105 119 126 126 126 126 131 138 142 144 145 145 138 125 116 111 103 97 96
244 221 216 247 258 271 278 279 281 69 57 69 67 16 21 17 38 42 35 40 26 32 20 1 41 77 75 68 57 82 92 61 69 92 98 104 99 87 89 97 102 102 104 103 99 95 96 102 107 113 115 114 111 106 100 98 101 104 108 109 110 113 111 109 110 110 109 111 111 110 108 106 104 94 81 87 93 102 112 122 122 123 129 129 136 143 147 149 151 150 140 130 125 118 110 102 99
249 246 233 248 257 279 281 277 308 75 65 73 90 29 27 34 35 38 45 51 34 34 27 8 49 84 77 312 77 106 112 94 85 96 105 111 103 95 95 97 98 98 100 103 104 102 103 109 116 120 116 112 109 104 99 97 100 104 106 104 102 106 110 114 115 112 110 108 106 105 101 98 101 98 87 91 91 101 112 119 109 110 124 129 139 146 151 154 157 158 154 147 138 127 121 110 107
235 249 256 261 270 284 284 303 360 40 61 43 69 50 39 48 30 11 27 58 43 33 52 33 74 104 113 202 130 130 112 108 118 122 132 127 113 104 100 96 90 89 93 101 106 107 106 110 121 122 115 114 110 104 100 100 102 103 104 103 100 101 107 113 114 113 114 106 101 100 98 93 94 99 98 94 99 128 131 124 108 100 112 124 140 150 159 165 167 171 172 169 169 169 169 167 169
244 263 268 269 281 285 301 297 344 53 78 39 58 59 50 52 43 41 34 65 57 31 55 31 30 96 157 178 108 112 105 102 117 122 131 126 116 105 97 93 84 79 83 93 101 107 109 111 121 120 117 121 116 110 105 102 102 102 100 101 99 100 100 101 99 96 98 102 102 97 95 95 89 97 105 86 276 171 177 157 124 108 109 118 139 156 168 177 184 187 192 192 200 206 214 233 245
271 284 278 279 290 280 347 350 356 59 99 86 76 64 60 53 40 64 62 93 81 44 54 33 13 58 141 121 92 109 102 97 104 109 119 115 108 101 93 85 80 83 85 90 93 98 105 109 117 117 118 121 118 119 116 105 99 100 99 101 99 99 96 87 84 83 89 96 98 90 88 90 84 107 105 77 311 220 219 247 247 194 140 148 146 168 181 193 205 209 216 217 221 228 235 245 258
241 264 282 285 292 293 10 18 24 50 75 89 97 75 64 84 69 86 95 96 90 65 63 53 38 55 80 96 104 109 99 96 94 106 124 115 99 99 93 80 78 84 85 90 93 96 102 104 111 119 121 119 119 120 116 106 102 102 99 101 102 100 97 85 79 73 73 77 80 79 75 70 65 77 88 78 80 279 295 298 266 261 236 224 212 211 222 227 235 238 239 242 243 244 250 253 258
235 245 278 290 302 341 2 18 27 28 63 77 89 74 51 133 97 90 107 93 95 82 71 62 58 62 81 121 121 96 86 80 79 104 121 116 108 102 92 83 85 83 82 87 91 98 99 95 101 117 123 121 119 114 106 100 96 103 97 98 101 102 103 90 76 68 69 73 74 74 60 43 56 66 40 13 129 271 318 332 296 272 260 250 246 240 247 255 261 266 263 264 265 267 268 264 265
250 269 340 313 354 15 2 14 16 6 62 81 68 70 26 43 70 18 333 96 103 85 69 61 71 81 105 131 103 84 87 82 85 99 104 108 113 113 109 102 96 90 88 87 86 93 92 88 97 114 123 129 127 121 113 102 88 98 99 100 101 100 99 84 72 74 87 85 87 93 67 50 84 77 69 324 240 245 334 338 328 299 282 268 258 254 257 262 267 275 276 277 280 281 279 277 274
229 49 19 350 34 22 354 1 6 356 41 87 92 76 26 26 36 350 347 26 93 83 68 80 112 127 148 121 82 79 100 101 105 99 97 102 101 105 111 114 111 99 94 88 82 87 92 93 103 115 119 127 130 128 121 113 113 110 108 115 111 93 82 85 90 101 113 101 99 102 77 89 106 70 69 57 245 232 278 324 315 314 308 288 275 265 264 272 279 278 274 278 279 276 283 276 260
278 99 29 7 49 33 336 349 3 354 354 37 70 65 38 14 19 9 359 4 72 74 105 225 145 160 174 140 94 86 93 91 92 94 95 97 99 99 101 110 112 100 92 91 86 85 91 98 109 120 125 130 130 133 131 126 131 135 124 115 100 87 86 94 103 108 110 112 118 113 102 103 106 69 31 319 258 233 244 279 299 295 283 285 290 273 264 271 277 277 268 275 282 273 261 247 250
340 30 3 16 52 37 349 13 15 349 347 19 40 55 48 353 28 23 18 30 59 71 171 177 143 180 176 137 113 102 96 90 85 89 95 94 98 100 102 109 110 102 94 91 93 90 95 107 109 109 124 129 123 129 136 130 129 136 124 105 92 90 84 79 87 88 87 93 108 119 117 102 93 102 14 282 220 234 254 259 282 285 271 265 273 274 273 263 261 266 258 260 269 259 249 248 252
18 23 34 24 35 34 10 15 17 10 26 44 44 39 30 28 49 47 45 66 87 101 145 162 151 179 153 115 113 111 104 98 84 70 88 95 96 100 109 113 111 108 102 92 96 100 104 116 114 105 116 124 122 132 139 133 131 131 117 106 105 94 75 65 69 73 70 66 60 73 102 99 123 190 10 169 194 257 294 290 285 278 278 269 267 275 277 261 258 266 264 257 253 251 256 256 250
38 14 51 30 21 38 22 15 37 50 53 64 75 38 44 57 67 66 63 84 100 112 143 176 152 148 139 118 102 100 91 78 61 39 57 77 93 105 109 113 113 110 103 95 97 106 112 118 120 120 126 132 134 141 142 136 136 131 118 112 109 93 78 73 64 56 53 54 48 40 48 64 102 193 248 223 283 277 303 325 321 303 309 312 267 263 282 274 269 270 269 264 256 257 264 259 246
33 22 50 41 28 34 31 35 58 71 68 76 76 56 59 70 78 71 69 104 116 123 150 180 148 139 149 124 93 79 72 61 45 34 50 64 97 108 109 114 113 109 106 101 102 109 116 123 127 130 137 142 139 133 129 121 117 114 108 105 101 91 82 70 54 39 35 43 37 33 27 25 40 25 348 328 314 287 296 296 301 312 316 319 238 234 273 269 274 277 271 271 270 265 258 252 246
32 41 38 32 37 29 39 53 61 68 56 81 80 60 64 74 86 73 63 117 132 135 151 176 142 131 136 106 91 83 78 65 40 28 50 67 102 109 113 116 107 107 113 108 110 117 123 131 134 134 133 136 133 128 125 118 111 106 101 96 93 90 80 55 39 28 21 27 25 31 27 19 31 23 21 12 351 341 340 327 320 322 295 305 265 240 268 249 269 278 260 261 266 259 256 263 257
49 44 32 23 24 17 50 63 64 72 61 86 101 91 78 80 82 80 90 120 127 134 146 160 141 121 119 95 78 75 69 57 38 359 20 47 97 119 122 118 107 110 121 111 110 122 130 132 131 132 129 128 126 125 125 120 115 107 100 94 86 78 69 46 31 24 17 17 19 32 26 17 29 24 22 16 3 11 9 10 7 351 313 307 263 231 241 235 264 272 268 278 256 252 263 272 260
69 67 46 22 358 350 70 76 73 95 85 97 117 119 108 95 64 78 110 114 106 130 143 146 137 116 110 111 110 98 81 78 49 3 329 278 190 139 117 114 111 115 122 114 112 123 135 134 130 132 132 130 127 128 125 117 112 100 87 76 70 58 49 38 26 25 24 20 22 33 30 21 24 22 22 14 7 20 25 19 12 10 5 4 307 229 215 225 244 242 257 276 251 259 269 264 259
77 89 77 349 298 329 71 75 70 79 92 121 144 136 99 77 68 87 104 103 77 105 138 136 129 123 126 141 144 142 155 142 117 144 258 246 194 129 108 111 116 117 121 120 116 125 137 138 134 135 136 137 135 136 130 117 109 95 82 64 54 47 40 29 21 31 30 16 18 29 29 23 20 21 21 18 18 21 32 28 15 20 16 8 356 319 269 275 279 259 269 278 263 271 265 257 273
92 96 117 296 291 92 90 79 74 65 70 148 176 137 70 81 98 100 104 100 63 16 260 139 125 121 134 167 160 168 170 144 145 185 215 234 158 124 116 110 116 119 124 129 121 125 135 141 144 145 147 146 144 142 134 121 117 115 109 82 63 59 48 30 18 32 34 15 16 24 23 22 20 21 18 17 25 22 28 31 22 22 11 3 2 346 348 344 339 338 328 331 332 314 291 266 255
78 139 174 189 294 108 119 123 113 98 127 200 212 17 65 96 120 130 161 136 100 257 239 148 126 122 138 167 161 171 160 142 150 167 183 198 102 117 124 117 120 124 127 131 127 124 130 136 141 146 152 154 149 148 143 133 128 120 102 73 64 66 52 33 16 14 28 25 25 27 21 22 21 21 20 15 17 20 26 30 24 18 9 12 16 357 351 350 343 344 341 339 341 338 328 317 310
46 206 189 197 252 107 135 145 142 128 145 217 258 59 92 102 132 155 170 126 120 230 235 112 118 122 138 151 155 172 149 143 143 142 146 114 97 127 137 120 117 120 123 126 127 130 135 136 137 141 151 157 152 153 150 137 124 102 86 94 71 70 56 12 19 26 38 33 29 28 21 22 23 21 22 17 16 22 26 25 20 15 13 15 14 6 3 4 3 1 351 337 335 336 331 332 351
250 209 167 226 184 141 151 135 132 124 126 231 295 63 107 97 127 149 141 114 133 202 201 149 151 124 134 138 144 154 134 138 136 141 135 120 138 157 125 110 113 119 124 129 133 142 150 146 145 145 150 158 155 156 154 138 131 125 147 187 291 9 15 358 22 38 40 33 28 28 24 22 22 19 20 19 20 24 25 23 17 14 15 13 10 11 11 9 6 2 353 349 348 338 330 332 349
211 181 208 268 297 248 126 106 118 113 79 273 313 46 110 111 132 139 141 137 151 176 154 185 188 138 131 127 126 130 146 151 145 157 136 126 148 145 113 115 125 135 141 143 143 146 149 146 150 154 150 155 156 157 159 152 157 160 165 219 338 9 35 33 32 34 34 33 31 28 24 22 21 20 19 18 21 25 25 23 16 14 16 16 14 12 12 11 8 6 356 355 1 347 337 341 1
165 145 161 144 297 2 108 99 109 120 147 176 297 349 104 122 139 138 157 168 167 152 138 174 161 112 113 111 115 131 159 164 160 156 126 118 130 125 122 124 128 143 147 146 144 139 141 144 151 154 150 151 151 150 153 155 158 149 154 162 92 70 57 45 37 42 42 40 36 29 26 25 22 21 19 18 21 23 22 20 15 16 17 17 18 12 10 9 7 8 359 353 354 347 347 356 10
73 92 41 32 72 62 93 85 86 109 134 141 162 180 130 126 137 141 147 151 146 112 102 122 97 79 91 101 109 133 151 147 152 145 122 122 132 131 129 124 129 143 143 143 143 137 141 145 146 147 147 148 149 152 158 163 166 162 168 170 123 84 67 53 46 51 51 48 42 33 28 25 21 20 21 21 22 20 19 20 17 17 16 14 16 12 8 7 3 4 2 354 346 344 358 7 10
76 89 38 11 46 48 73 87 84 81 78 90 126 138 157 162 148 128 116 121 127 113 100 103 102 91 86 94 107 122 129 126 134 134 126 128 133 132 129 129 136 141 144 148 146 143 146 147 147 150 151 152 158 163 164 170 175 172 171 162 151 142 144 129 87 60 50 50 35 30 27 18 17 16 15 19 23 21 17 20 18 17 17 13 12 9 7 8 6 7 5 2 356 349 354 9 12
106 97 59 53 58 51 75 90 94 86 76 48 43 65 120 141 118 111 126 153 127 114 116 105 97 94 88 91 105 111 115 122 132 135 131 129 130 133 133 138 144 145 153 156 149 149 150 154 158 156 160 169 179 176 166 169 173 172 173 163 161 150 132 121 99 72 57 52 30 25 21 11 9 4 5 15 21 20 15 16 18 18 17 12 11 8 8 9 10 13 10 7 3 350 345 15 27
112 99 81 92 67 68 77 82 89 84 70 87 72 50 26 36 49 84 116 132 124 140 142 103 89 89 99 98 104 119 129 125 137 142 135 134 137 139 139 145 150 151 155 160 158 158 162 169 167 161 170 184 187 174 163 159 135 115 131 126 120 105 95 100 103 94 78 64 45 32 20 13 10 2 2 8 17 22 12 8 12 17 17 12 9 9 9 12 13 14 12 9 4 357 357 15 25
60 106 105 74 84 95 87 78 70 11 13 86 88 64 29 20 18 42 47 65 114 141 116 97 99 95 111 127 121 127 130 129 144 141 131 139 142 138 145 152 157 157 158 166 167 168 176 176 171 172 180 183 170 159 146 140 123 95 102 101 106 118 113 119 120 107 94 72 54 41 26 19 13 8 3 1 12 20 11 6 0 6 24 15 10 14 11 7 13 15 14 11 8 6 2 359 9
48 57 3 26 81 94 110 113 101 14 25 89 94 73 48 27 31 47 20 13 74 94 77 95 114 111 117 135 133 125 127 132 141 137 132 148 153 151 160 162 167 169 164 171 174 174 180 175 174 179 178 173 165 161 145 140 143 128 125 124 130 143 145 154 151 141 155 124 77 59 33 19 13 12 4 357 3 3 3 5 346 347 22 24 12 14 7 360 12 20 15 12 12 12 1 351 1
76 50 11 14 19 51 96 111 107 139 97 77 90 76 39 65 81 78 44 1 60 98 122 114 117 126 130 130 125 126 133 128 130 143 161 162 159 159 168 169 171 174 169 173 178 175 178 175 175 177 174 172 165 162 155 151 155 154 159 162 158 173 185 185 189 186 182 177 156 163 38 35 19 9 3 1 4 2 357 353 345 340 359 22 18 13 10 2 8 17 16 13 12 11 5 358 359
79 44 10 1 323 9 110 123 113 125 103 56 73 91 67 315 71 87 110 67 63 96 128 134 135 126 112 119 137 134 129 117 121 143 162 164 156 152 168 180 176 178 174 174 180 179 179 175 175 179 175 173 169 168 169 172 173 173 183 189 185 192 190 182 185 179 179 183 179 217 227 165 48 13 359 356 3 14 3 342 350 335 337 6 16 13 16 7 5 10 11 12 9 7 11 8 358
62 38 335 318 324 347 101 134 131 114 100 64 83 101 128 312 78 97 91 79 65 55 88 112 122 118 100 98 128 124 115 117 127 144 151 151 153 150 166 189 190 187 181 181 185 184 183 177 177 182 177 174 177 176 181 186 185 186 198 204 202 203 190 179 183 181 183 185 187 220 232 188 105 26 356 350 348 2 4 341 348 347 343 356 4 13 20 11 9 7 4 11 9 7 14 12 1
40 42 333 332 349 332 313 101 101 108 110 107 111 112 115 12 78 93 71 76 73 49 55 63 70 106 116 86 96 110 113 120 134 147 148 150 157 160 168 188 206 203 189 189 192 187 187 182 181 187 182 179 183 184 189 192 191 193 196 203 209 202 185 185 190 187 186 188 192 207 229 244 210 356 347 345 339 349 353 336 344 15 6 349 352 6 12 11 12 5 2 8 9 8 11 10 5
32 348 265 256 250 276 339 39 87 111 100 133 155 142 108 95 95 71 58 70 73 58 54 58 63 82 96 103 117 118 119 127 89 123 149 158 164 166 167 177 195 204 194 191 198 195 193 189 190 198 198 192 194 194 195 195 197 199 198 206 213 203 192 195 194 187 189 197 198 197 210 233 226 242 315 295 332 351 347 335 348 22 27 2 344 351 1 16 16 1 356 2 6 7 5 4 7
274 266 259 245 242 8 347 36 87 83 62 113 144 124 87 98 129 168 119 105 97 80 65 64 63 58 66 99 130 129 116 123 138 138 147 154 158 162 164 170 182 192 190 194 206 205 201 201 200 208 212 210 210 210 207 205 204 204 206 212 216 209 201 201 198 192 194 201 201 198 205 217 221 235 268 251 300 339 335 341 349 8 21 31 354 356 8 16 7 356 356 356 356 3 2 357 5
248 261 304 321 311 25 268 272 97 100 66 86 110 99 92 100 108 104 104 103 96 86 74 59 57 58 56 71 96 111 105 109 135 155 145 142 145 152 162 173 184 186 187 197 206 204 208 214 212 216 221 220 222 225 224 219 211 209 214 217 218 216 209 206 206 205 204 202 200 200 204 218 221 216 220 215 243 297 212 116 339 1 5 337 342 5 17 8 355 358 1 350 348 1 358 348 0
251 263 61 35 302 315 4 1 9 30 56 59 79 90 94 91 86 80 76 80 76 71 67 53 52 60 62 61 69 81 82 85 108 121 125 136 143 155 169 184 195 193 194 201 205 205 209 214 217 223 226 224 226 232 233 228 221 218 222 222 220 219 216 214 213 213 214 209 203 200 202 216 216 204 205 206 220 229 179 192 297 29 349 319 337 360 3 351 346 349 344 342 351 353 337 336 2
292 312 48 27 324 3 29 360 353 45 36 48 82 93 81 61 74 71 68 74 80 80 75 65 60 56 52 53 61 66 63 57 80 106 129 177 171 166 172 181 192 201 205 206 210 212 213 217 223 228 231 228 228 232 233 233 231 228 229 229 225 222 221 221 220 219 218 213 209 205 204 211 212 206 206 202 205 204 182 203 211 154 297 313 343 341 339 333 343 346 330 338 353 345 339 346 0
352 9 342 10 26 17 31 356 358 49 27 18 66 92 80 69 69 73 86 85 77 76 70 62 60 60 52 48 62 79 80 61 62 90 90 44 145 157 173 178 184 205 214 212 218 221 222 228 231 234 237 235 234 236 236 237 238 235 234 235 232 228 226 225 226 226 220 214 213 210 205 207 205 203 199 193 194 193 190 198 183 191 268 300 302 332 330 315 338 359 334 339 353 344 348 354 347
12 355 328 31 27 341 30 55 6 20 38 21 52 65 70 86 71 62 71 77 85 86 70 60 59 66 65 54 59 70 76 73 50 43 51 38 56 104 172 185 183 200 210 215 227 232 232 237 243 244 245 244 242 241 241 242 242 240 238 236 236 234 230 227 227 228 224 216 214 211 204 202 201 199 195 193 194 187 187 194 190 201 223 240 257 273 285 286 321 349 326 332 345 342 343 352 350
344 342 21 41 16 342 31 106 2 335 112 72 77 80 85 94 66 49 44 56 94 108 80 66 60 61 65 63 58 46 53 70 57 25 15 15 41 90 140 183 198 204 203 207 221 234 239 245 254 256 254 252 249 246 245 245 245 244 239 234 236 237 233 230 227 226 224 218 215 213 206 200 199 197 194 194 193 186 186 197 199 195 203 217 228 255 281 315 333 303 300 314 325 325 326 348 1
330 2 28 12 41 20 10 71 289 290 74 65 73 63 48 50 32 46 43 36 58 68 60 59 50 49 51 49 55 48 54 76 81 58 6 347 356 65 129 168 201 202 210 221 229 245 247 242 244 254 258 256 252 249 246 246 247 247 244 237 235 236 235 234 231 226 222 218 216 213 205 200 197 194 191 191 191 192 193 197 196 191 203 218 219 248 288 355 327 299 300 307 297 287 308 326 339
339 5 4 331 77 53 322 312 15 11 41 71 95 77 46 14 349 53 51 28 32 35 44 54 48 48 45 40 51 52 56 75 96 109 70 293 307 22 92 128 157 181 201 215 223 252 259 248 241 244 251 254 253 255 255 253 251 250 250 245 239 237 238 237 234 228 221 217 216 212 204 200 198 193 192 192 191 194 196 198 199 197 208 211 204 246 288 310 305 303 298 298 287 263 309 327 333
338 355 25 359 29 24 314 327 21 12 15 87 127 99 57 275 237 73 54 36 36 31 38 48 49 53 48 41 44 46 51 61 78 98 112 140 114 13 72 64 54 129 202 190 190 215 234 238 236 232 237 246 248 253 260 263 264 261 256 252 248 244 241 239 236 230 223 217 215 212 205 200 198 195 193 194 194 195 198 202 201 201 210 205 197 221 245 245 264 257 259 295 349 348 297 307 323
350 9 31 352 359 13 344 330 322 335 354 355 90 83 72 214 106 49 42 37 35 35 42 47 52 61 59 52 50 48 49 50 53 65 64 60 44 278 100 82 65 358 305 206 183 212 230 234 236 232 237 248 249 249 253 258 263 264 261 257 255 252 251 251 246 233 224 221 216 211 205 198 196 197 197 197 198 198 201 205 205 206 209 203 204 211 192 197 247 224 217 270 339 322 297 312 3
348 9 30 346 359 4 326 323 351 350 10 14 74 93 61 45 51 40 32 31 36 43 50 55 61 67 68 65 62 57 55 50 48 50 40 30 7 18 79 119 158 189 243 233 211 287 281 262 261 256 253 254 253 255 260 261 262 264 269 278 282 275 273 278 269 246 226 223 221 213 204 198 197 199 199 199 200 203 204 207 210 210 203 198 204 197 174 183 238 226 214 222 210 232 284 315 353